Location: ??????????
(54.4061°N, 22.6114°E)
Time: 20:02:14
(UTC+00:00)

YAOGAN 1 - Pass Details

Date: 23 October 2019
Orbit: 619 x 621 km, 98.0° (Epoch: 13 November)

Event Time Altitude Azimuth Distance (km) Brightness Sun altitude
Rises 16:38:17 0° 162° (SSE) 2,889 5.8 -12.8°
Reaches altitude 10° 16:40:28 10° 162° (SSE) 1,987 5.0 -13.2°
Maximum altitude 16:44:48 87° 76° (ENE) 630 2.5 -13.8°
Drops below altitude 10° 16:49:10 10° 346° (NNW) 2,002 5.4 -14.4°
Sets 16:51:22 0° 346° (NNW) 2,912 6.2 -14.7°
